AFR175 KLAX-ESSA

Flight info

Callsign AFR175
Flight time N/A
Altitude 35000
Route OSHNN1 BEALE Q842 WINEN DCT MLF DCT OCS/N0480F370 DCT YBR DCT YIV DCT DUGNO/N0467F390 DCT BEZED/M083F390 DCT 68N050W 69N040W 69N030W 68N020W 67N010W/M084F410 65N000W/N0478F410 DCT GIKOR DCT VEXOM DCT EGAGO DCT PERAX DCT ELTOK
Aircraft B772/H-SDE2E3FGHIJ5LORVWXY/LB1D1

Departure

Time 2026-04-26 05:26
Airport Los Angeles International Airport (KLAX)

Arrival

Time N/A
Airport Stockholm-Arlanda Airport (ESSA)
Time Latitude Longitude Altitude Speed Heading
2026-04-26 04:44 33.94177 -118.41102 126 ft 0 kts 82°
2026-04-26 04:47 33.94177 -118.41103 126 ft 0 kts 82°
2026-04-26 04:59 33.94176 -118.41103 130 ft 0 kts 82°
2026-04-26 04:59 33.94177 -118.41103 130 ft 0 kts 82°
2026-04-26 04:59 33.94176 -118.41104 130 ft 0 kts 82°
2026-04-26 05:12 33.94176 -118.41105 130 ft 0 kts 82°
2026-04-26 05:13 33.94174 -118.41136 128 ft 4 kts 92°
2026-04-26 05:13 33.94177 -118.41168 124 ft 4 kts 107°
2026-04-26 05:14 33.94189 -118.41196 124 ft 4 kts 132°
2026-04-26 05:14 33.94209 -118.41213 124 ft 3 kts 171°
2026-04-26 05:14 33.94211 -118.41214 124 ft 3 kts 172°
2026-04-26 05:15 33.94212 -118.41214 124 ft 0 kts 172°
2026-04-26 05:16 33.94197 -118.41211 124 ft 7 kts 172°
2026-04-26 05:16 33.94123 -118.41199 127 ft 12 kts 172°
2026-04-26 05:17 33.94037 -118.41185 127 ft 12 kts 172°
2026-04-26 05:17 33.93954 -118.41172 128 ft 12 kts 173°
2026-04-26 05:17 33.93869 -118.41160 124 ft 12 kts 173°
2026-04-26 05:17 33.93800 -118.41146 127 ft 9 kts 156°
2026-04-26 05:18 33.93775 -118.41081 127 ft 9 kts 91°
2026-04-26 05:18 33.93777 -118.41005 130 ft 9 kts 86°
2026-04-26 05:18 33.93783 -118.40930 127 ft 9 kts 84°
2026-04-26 05:18 33.93789 -118.40870 130 ft 9 kts 82°
2026-04-26 05:19 33.93796 -118.40814 126 ft 9 kts 82°
2026-04-26 05:19 33.93804 -118.40740 127 ft 9 kts 82°
2026-04-26 05:19 33.93812 -118.40664 126 ft 10 kts 83°
2026-04-26 05:19 33.93819 -118.40605 128 ft 13 kts 83°
2026-04-26 05:20 33.93822 -118.40578 126 ft 14 kts 83°
2026-04-26 05:20 33.93836 -118.40431 126 ft 24 kts 83°
2026-04-26 05:20 33.93861 -118.40171 127 ft 36 kts 83°
2026-04-26 05:20 33.93890 -118.39881 129 ft 33 kts 83°
2026-04-26 05:21 33.93917 -118.39617 130 ft 30 kts 83°
2026-04-26 05:21 33.93943 -118.39368 126 ft 30 kts 83°
2026-04-26 05:21 33.93969 -118.39118 125 ft 30 kts 83°
2026-04-26 05:21 33.93995 -118.38869 130 ft 30 kts 83°
2026-04-26 05:22 33.94020 -118.38624 127 ft 30 kts 83°
2026-04-26 05:22 33.94045 -118.38375 129 ft 30 kts 83°
2026-04-26 05:22 33.94062 -118.38206 130 ft 16 kts 83°
2026-04-26 05:22 33.94075 -118.38084 130 ft 10 kts 80°
2026-04-26 05:23 33.94075 -118.38033 128 ft 0 kts 121°
2026-04-26 05:24 33.94072 -118.38026 130 ft 4 kts 121°
2026-04-26 05:24 33.94048 -118.38007 129 ft 0 kts 163°
2026-04-26 05:24 33.94047 -118.38007 129 ft 2 kts 164°
2026-04-26 05:24 33.94007 -118.38006 127 ft 9 kts 197°
2026-04-26 05:25 33.93978 -118.38100 129 ft 28 kts 260°
2026-04-26 05:25 33.93928 -118.38576 128 ft 86 kts 263°
2026-04-26 05:25 33.93832 -118.39506 127 ft 136 kts 263°
2026-04-26 05:25 33.93698 -118.40811 164 ft 174 kts 263°
2026-04-26 05:26 33.93546 -118.42266 642 ft 176 kts 262°
2026-04-26 05:26 33.93421 -118.43231 1029 ft 178 kts 259°
2026-04-26 05:26 33.93118 -118.44700 1571 ft 183 kts 253°
2026-04-26 05:26 33.93003 -118.45116 1749 ft 184 kts 251°
2026-04-26 05:27 33.92462 -118.46507 2275 ft 188 kts 240°
2026-04-26 05:27 33.91677 -118.47887 2415 ft 211 kts 235°
2026-04-26 05:27 33.90766 -118.49380 2595 ft 230 kts 235°
2026-04-26 05:27 33.90092 -118.50440 2814 ft 241 kts 233°
2026-04-26 05:28 33.89019 -118.51996 3302 ft 248 kts 232°
2026-04-26 05:28 33.87900 -118.53596 3913 ft 251 kts 232°
2026-04-26 05:28 33.86736 -118.55164 4516 ft 252 kts 223°
2026-04-26 05:28 33.85154 -118.56097 4955 ft 264 kts 188°
2026-04-26 05:29 33.83324 -118.55807 5510 ft 269 kts 165°
2026-04-26 05:29 33.81523 -118.55158 5920 ft 273 kts 171°
2026-04-26 05:29 33.79663 -118.54695 6531 ft 273 kts 173°
2026-04-26 05:29 33.77810 -118.54239 7188 ft 272 kts 172°
2026-04-26 05:30 33.75952 -118.53756 7785 ft 274 kts 172°
2026-04-26 05:30 33.74090 -118.53260 8393 ft 275 kts 171°
2026-04-26 05:30 33.72217 -118.52757 8938 ft 278 kts 171°
2026-04-26 05:30 33.70406 -118.52028 9338 ft 284 kts 152°
2026-04-26 05:31 33.69019 -118.50280 9725 ft 300 kts 117°
2026-04-26 05:31 33.68407 -118.47886 10140 ft 302 kts 106°
2026-04-26 05:31 33.67802 -118.45422 10280 ft 316 kts 112°
2026-04-26 05:31 33.67029 -118.42876 10418 ft 333 kts 113°
2026-04-26 05:32 33.66210 -118.40199 10561 ft 351 kts 112°
2026-04-26 05:32 33.65365 -118.37370 10776 ft 367 kts 111°
2026-04-26 05:32 33.64683 -118.34374 11154 ft 379 kts 102°
2026-04-26 05:32 33.64388 -118.31195 11670 ft 387 kts 93°
2026-04-26 05:33 33.64439 -118.27950 12254 ft 392 kts 89°
2026-04-26 05:33 33.64494 -118.24670 12829 ft 395 kts 91°
2026-04-26 05:33 33.64515 -118.21410 13333 ft 396 kts 88°
2026-04-26 05:33 33.65086 -118.18163 13526 ft 406 kts 64°
2026-04-26 05:34 33.66728 -118.15422 14001 ft 406 kts 38°
2026-04-26 05:34 33.69058 -118.13607 14463 ft 397 kts 24°
2026-04-26 05:34 33.71466 -118.11913 14625 ft 408 kts 31°
2026-04-26 05:34 33.73776 -118.09888 15069 ft 413 kts 34°
2026-04-26 05:35 33.76045 -118.07758 15639 ft 415 kts 35°
2026-04-26 05:35 33.78325 -118.05619 16151 ft 418 kts 34°
2026-04-26 05:35 33.80648 -118.03480 16581 ft 423 kts 34°
2026-04-26 05:35 33.83009 -118.01339 17048 ft 427 kts 33°
2026-04-26 05:36 33.85394 -117.99191 17600 ft 429 kts 33°
2026-04-26 05:36 33.87796 -117.97031 18119 ft 432 kts 33°
2026-04-26 05:36 33.90177 -117.94889 18574 ft 434 kts 33°
2026-04-26 05:36 33.92596 -117.92698 18982 ft 437 kts 33°
2026-04-26 05:37 33.95031 -117.90471 19373 ft 441 kts 33°
2026-04-26 05:37 33.97482 -117.88225 19757 ft 444 kts 33°
2026-04-26 05:37 33.99950 -117.85965 20128 ft 447 kts 33°
2026-04-26 05:37 34.02439 -117.83687 20502 ft 450 kts 33°
2026-04-26 05:38 34.04809 -117.81517 20857 ft 453 kts 33°
2026-04-26 05:38 34.07443 -117.79072 21255 ft 457 kts 36°
2026-04-26 05:38 34.09811 -117.76481 21612 ft 463 kts 43°
2026-04-26 05:38 34.11925 -117.73517 21974 ft 468 kts 50°
2026-04-26 05:39 34.13892 -117.70444 22336 ft 471 kts 50°
2026-04-26 05:39 34.15942 -117.67340 22693 ft 474 kts 49°
2026-04-26 05:39 34.18025 -117.64243 23063 ft 477 kts 48°
2026-04-26 05:39 34.20127 -117.61135 23474 ft 478 kts 49°
2026-04-26 05:40 34.22228 -117.58023 23856 ft 479 kts 49°
2026-04-26 05:40 34.24331 -117.54895 24146 ft 481 kts 49°
2026-04-26 05:40 34.26451 -117.51739 24356 ft 485 kts 49°
2026-04-26 05:40 34.28582 -117.48561 24643 ft 487 kts 49°
2026-04-26 05:41 34.30718 -117.45371 24926 ft 490 kts 49°
2026-04-26 05:41 34.32868 -117.42161 25199 ft 493 kts 49°
2026-04-26 05:41 34.35032 -117.38926 25481 ft 495 kts 49°
2026-04-26 05:41 34.37174 -117.35722 25766 ft 497 kts 49°
2026-04-26 05:42 34.39352 -117.32460 26062 ft 499 kts 49°
2026-04-26 05:42 34.41538 -117.29181 26308 ft 502 kts 49°
2026-04-26 05:42 34.43733 -117.25887 26573 ft 504 kts 49°
2026-04-26 05:42 34.45939 -117.22571 26876 ft 506 kts 49°
2026-04-26 05:43 34.48153 -117.19241 27154 ft 509 kts 49°
2026-04-26 05:43 34.50378 -117.15892 27375 ft 511 kts 50°
2026-04-26 05:43 34.52608 -117.12533 27661 ft 512 kts 50°
2026-04-26 05:43 34.54847 -117.09161 27977 ft 514 kts 50°
2026-04-26 05:44 34.57116 -117.05815 28310 ft 514 kts 49°
2026-04-26 05:44 34.59413 -117.02483 28624 ft 515 kts 49°
2026-04-26 05:44 34.61693 -116.99190 28871 ft 518 kts 49°
2026-04-26 05:44 34.64014 -116.95831 29080 ft 520 kts 49°
2026-04-26 05:45 34.66341 -116.92448 29341 ft 523 kts 49°
2026-04-26 05:45 34.68671 -116.89050 29596 ft 525 kts 49°
2026-04-26 05:45 34.71007 -116.85632 29831 ft 526 kts 50°
2026-04-26 05:45 34.73353 -116.82195 29967 ft 530 kts 50°
2026-04-26 05:46 34.75712 -116.78736 30120 ft 533 kts 50°
2026-04-26 05:46 34.78081 -116.75258 30306 ft 534 kts 50°
2026-04-26 05:46 34.80424 -116.71816 30498 ft 535 kts 50°
2026-04-26 05:46 34.82797 -116.68328 30699 ft 536 kts 50°
2026-04-26 05:47 34.85180 -116.64822 30859 ft 538 kts 50°
2026-04-26 05:47 34.87594 -116.61339 31043 ft 538 kts 48°
2026-04-26 05:47 34.90101 -116.57946 31292 ft 538 kts 47°
2026-04-26 05:47 34.92578 -116.54699 31493 ft 539 kts 46°
2026-04-26 05:48 34.97743 -116.47957 31658 ft 545 kts 47°
2026-04-26 05:48 35.00302 -116.44574 31922 ft 544 kts 47°
2026-04-26 05:48 35.02859 -116.41164 32199 ft 542 kts 47°
2026-04-26 05:49 35.05396 -116.37762 32417 ft 543 kts 47°
2026-04-26 05:49 35.10434 -116.30976 32818 ft 543 kts 47°
2026-04-26 05:49 35.12970 -116.27554 33020 ft 543 kts 47°
2026-04-26 05:50 35.15506 -116.24133 33221 ft 543 kts 47°
2026-04-26 05:50 35.18035 -116.20718 33466 ft 542 kts 47°
2026-04-26 05:50 35.20566 -116.17299 33677 ft 542 kts 47°
2026-04-26 05:50 35.23091 -116.13885 33887 ft 542 kts 47°
2026-04-26 05:51 35.25553 -116.10551 34255 ft 535 kts 47°
2026-04-26 05:51 35.27603 -116.07773 34507 ft 533 kts 47°
2026-04-26 05:52 35.28964 -116.05920 34553 ft 534 kts 47°
2026-04-26 05:52 35.33987 -115.99107 34710 ft 538 kts 47°
2026-04-26 05:53 35.39013 -115.92281 34794 ft 540 kts 47°
2026-04-26 05:53 35.44013 -115.85464 34818 ft 534 kts 47°
2026-04-26 05:54 35.48964 -115.78699 34824 ft 531 kts 47°
2026-04-26 05:54 35.53887 -115.71962 34823 ft 529 kts 47°
2026-04-26 05:55 35.58759 -115.65280 34836 ft 529 kts 48°
2026-04-26 05:55 35.63675 -115.58527 34816 ft 534 kts 48°
2026-04-26 05:56 35.68654 -115.51673 34828 ft 540 kts 48°
2026-04-26 05:56 35.71776 -115.47367 34826 ft 543 kts 48°
2026-04-26 05:57 35.76338 -115.41055 34823 ft 545 kts 48°
2026-04-26 05:57 35.81369 -115.34090 34788 ft 540 kts 48°
2026-04-26 05:58 35.86299 -115.27244 34792 ft 538 kts 48°
2026-04-26 05:58 35.91270 -115.20326 34811 ft 540 kts 49°
2026-04-26 05:59 35.96255 -115.13374 34801 ft 541 kts 49°
2026-04-26 05:59 36.01245 -115.06402 34785 ft 542 kts 49°
2026-04-26 06:00 36.06195 -114.99471 34746 ft 541 kts 49°
2026-04-26 06:00 36.11167 -114.92494 34709 ft 541 kts 49°
2026-04-26 06:01 36.16166 -114.85725 34693 ft 523 kts 42°
2026-04-26 06:01 36.21888 -114.80202 34729 ft 522 kts 31°
2026-04-26 06:02 36.28229 -114.75886 34694 ft 520 kts 25°
2026-04-26 06:02 36.33525 -114.72455 34678 ft 520 kts 26°
2026-04-26 06:03 36.36072 -114.70773 34669 ft 519 kts 26°
2026-04-26 06:03 36.42419 -114.66558 34654 ft 516 kts 26°
2026-04-26 06:04 36.48737 -114.62348 34685 ft 516 kts 26°
2026-04-26 06:04 36.55082 -114.58117 34655 ft 518 kts 26°
2026-04-26 06:05 36.61395 -114.53901 34641 ft 519 kts 26°
2026-04-26 06:05 36.67752 -114.49645 34644 ft 519 kts 26°
2026-04-26 06:06 36.74031 -114.45210 34642 ft 518 kts 31°
2026-04-26 06:06 36.80112 -114.40413 34720 ft 516 kts 31°
2026-04-26 06:07 36.86177 -114.35604 34720 ft 524 kts 31°
2026-04-26 06:07 36.92316 -114.30761 34853 ft 527 kts 31°
2026-04-26 06:08 36.98540 -114.25859 34993 ft 530 kts 31°
2026-04-26 06:08 37.01660 -114.23401 35100 ft 530 kts 31°
2026-04-26 06:08 37.04777 -114.20940 35248 ft 529 kts 31°
2026-04-26 06:08 37.07892 -114.18478 35366 ft 529 kts 31°
2026-04-26 06:09 37.11008 -114.16014 35406 ft 531 kts 31°
2026-04-26 06:09 37.17218 -114.11093 35509 ft 533 kts 31°
2026-04-26 06:10 37.23469 -114.06130 35634 ft 534 kts 31°
2026-04-26 06:10 37.29771 -114.01117 35691 ft 537 kts 31°
2026-04-26 06:10 37.32924 -113.98606 35814 ft 536 kts 31°
2026-04-26 06:11 37.36074 -113.96092 35895 ft 536 kts 31°
2026-04-26 06:11 37.42357 -113.91074 35660 ft 543 kts 31°
2026-04-26 06:11 37.45530 -113.88535 35381 ft 537 kts 31°
2026-04-26 06:12 37.48619 -113.86061 35110 ft 529 kts 31°
2026-04-26 06:12 37.51705 -113.83587 34834 ft 521 kts 31°
2026-04-26 06:12 37.54742 -113.81149 34774 ft 515 kts 31°
2026-04-26 06:13 37.60788 -113.76291 34734 ft 516 kts 32°
2026-04-26 06:13 37.66869 -113.71398 34725 ft 521 kts 31°
2026-04-26 06:14 37.72954 -113.66489 34727 ft 523 kts 31°
2026-04-26 06:14 37.79088 -113.61529 34722 ft 524 kts 31°